| time (UTC) | temp C | wind direction | speed KPH | gust KPH | rain 1hr cm | rain 24hr cm | rain mn cm | humidity % | barometer mb |
| 20260903054101 | 13 | 230 | 0.0 | 0.0 | 0.00 | 0.00 | 0.66 | 92 | 1008.5 |
| 20260903053059 | 13 | 225 | 0.0 | 0.0 | 0.00 | 0.00 | 0.66 | 92 | 1008.6 |
| 20260903052058 | 13 | 225 | 0.0 | 0.0 | 0.00 | 0.00 | 0.66 | 92 | 1008.7 |
| 20260903051057 | 13 | 223 | 0.0 | 0.0 | 0.00 | 0.00 | 0.66 | 92 | 1008.7 |
| 20260903050056 | 13 | 223 | 0.0 | 0.0 | 0.00 | 0.00 | 0.66 | 92 | 1008.5 |
| 20260903045055 | 13 | 197 | 0.0 | 0.0 | 0.00 | 0.00 | 0.66 | 92 | 1008.5 |
| 20260903044054 | 13 | 198 | 0.0 | 0.0 | 0.00 | 0.00 | 0.66 | 92 | 1008.4 |
| 20260903042052 | 14 | 203 | 0.0 | 0.0 | 0.00 | 0.00 | 0.66 | 92 | 1008.3 |
| 20260903041051 | 14 | 200 | 0.0 | 0.0 | 0.00 | 0.00 | 0.66 | 92 | 1008.2 |
| 20260903040050 | 14 | 217 | 0.0 | 0.0 | 0.00 | 0.00 | 0.66 | 92 | 1008.0 |
| 20260903035049 | 14 | 217 | 0.0 | 0.0 | 0.00 | 0.00 | 0.66 | 92 | 1007.9 |
| 20260903033047 | 15 | 215 | 3.2 | 0.0 | 0.00 | 0.00 | 0.66 | 92 | 1007.6 |
| 20260903032046 | 15 | 196 | 0.0 | 0.0 | 0.00 | 0.00 | 0.66 | 92 | 1007.5 |
| 20260903030044 | 15 | 202 | 0.0 | 0.0 | 0.00 | 0.00 | 0.66 | 92 | 1007.4 |
| 20260903025043 | 15 | 199 | 0.0 | 0.0 | 0.00 | 0.00 | 0.66 | 92 | 1007.2 |
| 20260903024042 | 15 | 188 | 0.0 | 0.0 | 0.00 | 0.00 | 0.66 | 92 | 1007.1 |
| 20260903023041 | 15 | 186 | 0.0 | 0.0 | 0.00 | 0.00 | 0.66 | 92 | 1007.0 |
| 20260903022040 | 15 | 194 | 0.0 | 0.0 | 0.00 | 0.00 | 0.66 | 92 | 1007.1 |
| 20260903021039 | 15 | 194 | 0.0 | 0.0 | 0.00 | 0.00 | 0.66 | 92 | 1006.9 |
| 20260903014036 | 15 | 196 | 0.0 | 0.0 | 0.00 | 0.00 | 0.66 | 92 | 1006.6 |
| 20260903013035 | 15 | 196 | 0.0 | 0.0 | 0.00 | 0.00 | 0.64 | 92 | 1006.6 |
| 20260903012034 | 15 | 198 | 0.0 | 0.0 | 0.00 | 0.00 | 0.64 | 91 | 1006.5 |
| 20260903011033 | 15 | 198 | 0.0 | 0.0 | 0.00 | 0.00 | 0.64 | 91 | 1006.5 |
| 20260903005031 | 16 | 236 | 0.0 | 0.0 | 0.00 | 0.00 | 0.64 | 92 | 1006.3 |
| 20260903004030 | 16 | 212 | 0.0 | 0.0 | 0.00 | 0.00 | 0.64 | 91 | 1006.2 |
| 20260903003028 | 16 | 224 | 0.0 | 0.0 | 0.00 | 0.00 | 0.61 | 92 | 1006.0 |
| 20260903002028 | 16 | 232 | 1.6 | 0.0 | 0.00 | 0.00 | 0.61 | 92 | 1006.1 |
| 20260903001026 | 15 | 239 | 0.0 | 0.0 | 0.00 | 0.00 | 0.61 | 92 | 1006.1 |
| 20260903000025 | 15 | 213 | 0.0 | 0.0 | 0.00 | 0.00 | 0.58 | 92 | 1006.0 |
| 20260902235025 | 15 | 211 | 0.0 | 0.0 | 0.00 | 0.00 | 0.58 | 92 | 1005.9 |
| 20260902234023 | 15 | 259 | 0.0 | 0.0 | 0.00 | 0.00 | 0.58 | 93 | 1006.0 |
| 20260902233022 | 15 | 257 | 8.0 | 0.0 | 0.00 | 0.00 | 0.58 | 92 | 1005.8 |
| 20260902232021 | 15 | 253 | 9.7 | 0.0 | 0.00 | 0.00 | 0.58 | 92 | 1005.9 |
| 20260902231020 | 15 | 253 | 0.0 | 0.0 | 0.00 | 0.00 | 0.58 | 92 | 1005.8 |
| 20260902230020 | 15 | 234 | 0.0 | 0.0 | 0.00 | 0.00 | 0.56 | 92 | 1005.7 |
| 20260902225018 | 15 | 223 | 4.8 | 0.0 | 0.00 | 0.00 | 0.53 | 91 | 1005.6 |
| 20260902223017 | 15 | 221 | 1.6 | 0.0 | 0.00 | 0.00 | 0.53 | 91 | 1005.6 |
| 20260902222016 | 15 | 242 | 0.0 | 0.0 | 0.00 | 0.00 | 0.53 | 91 | 1005.4 |
| 20260902221015 | 15 | 229 | 4.8 | 0.0 | 0.00 | 0.00 | 0.53 | 91 | 1005.4 |
| 20260902220014 | 15 | 213 | 0.0 | 0.0 | 0.00 | 0.00 | 0.53 | 92 | 1005.5 |
| 20260902215012 | 15 | 229 | 0.0 | 0.0 | 0.00 | 0.00 | 0.53 | 93 | 1005.3 |
| 20260902214011 | 15 | 229 | 3.2 | 0.0 | 0.00 | 0.00 | 0.53 | 92 | 1005.3 |
| 20260902212010 | 15 | 174 | 0.0 | 0.0 | 0.00 | 0.00 | 0.51 | 92 | 1005.4 |
| 20260902211009 | 15 | 186 | 0.0 | 0.0 | 0.00 | 0.00 | 0.51 | 92 | 1005.5 |
| 20260902210007 | 15 | 174 | 9.7 | 0.0 | 0.00 | 0.00 | 0.51 | 92 | 1005.4 |
| 20260902205006 | 15 | 193 | 0.0 | 0.0 | 0.00 | 0.00 | 0.51 | 92 | 1005.3 |
| 20260902204006 | 15 | 192 | 0.0 | 0.0 | 0.00 | 0.00 | 0.51 | 92 | 1005.1 |
| 20260902202003 | 15 | 167 | 0.0 | 0.0 | 0.00 | 0.00 | 0.51 | 92 | 1005.0 |
| 20260902201003 | 15 | 187 | 4.8 | 0.0 | 0.00 | 0.00 | 0.51 | 92 | 1005.0 |
| 20260902200001 | 15 | 183 | 0.0 | 0.0 | 0.00 | 0.00 | 0.46 | 92 | 1005.1 |
| 20260902195000 | 15 | 183 | 0.0 | 0.0 | 0.00 | 0.00 | 0.43 | 92 | 1005.3 |
| 20260902193959 | 15 | 191 | 0.0 | 0.0 | 0.00 | 0.00 | 0.38 | 91 | 1005.4 |
| 20260902192959 | 15 | 170 | 0.0 | 0.0 | 0.00 | 0.00 | 0.30 | 91 | 1005.5 |
| 20260902191957 | 15 | 169 | 0.0 | 0.0 | 0.00 | 0.00 | 0.28 | 90 | 1005.6 |
| 20260902190956 | 15 | 169 | 0.0 | 0.0 | 0.00 | 0.00 | 0.23 | 90 | 1005.5 |
| 20260902185955 | 15 | 169 | 0.0 | 0.0 | 0.00 | 0.00 | 0.20 | 90 | 1005.4 |
| 20260902184954 | 15 | 180 | 0.0 | 0.0 | 0.00 | 0.00 | 0.18 | 90 | 1005.5 |
| 20260902183953 | 15 | 178 | 0.0 | 0.0 | 0.00 | 0.00 | 0.15 | 89 | 1005.6 |
| 20260902182952 | 15 | 178 | 0.0 | 0.0 | 0.00 | 0.00 | 0.15 | 88 | 1005.9 |
| 20260902181951 | 15 | 215 | 0.0 | 0.0 | 0.00 | 0.00 | 0.13 | 88 | 1006.1 |
| 20260902174948 | 16 | 258 | 0.0 | 0.0 | 0.00 | 0.00 | 0.08 | 83 | 1006.3 |
| 20260902173947 | 17 | 258 | 0.0 | 0.0 | 0.00 | 0.00 | 0.05 | 80 | 1006.0 |
| 20260902172947 | 17 | 197 | 0.0 | 0.0 | 0.00 | 0.00 | 0.00 | 78 | 1006.0 |
| 20260902171945 | 17 | 197 | 0.0 | 0.0 | 0.00 | 0.00 | 0.00 | 76 | 1005.7 |
| 20260902170944 | 17 | 197 | 0.0 | 0.0 | 0.00 | 0.00 | 0.00 | 72 | 1005.6 |
| 20260902165943 | 18 | 197 | 0.0 | 0.0 | 0.00 | 0.00 | 0.00 | 71 | 1005.5 |
| 20260902164942 | 18 | 209 | 0.0 | 0.0 | 0.00 | 0.00 | 0.00 | 70 | 1005.5 |
| 20260902163941 | 18 | 209 | 0.0 | 0.0 | 0.00 | 0.00 | 0.00 | 68 | 1005.4 |
| 20260902162940 | 17 | 207 | 0.0 | 0.0 | 0.00 | 0.00 | 0.00 | 69 | 1005.3 |
| 20260902160938 | 17 | 163 | 0.0 | 0.0 | 0.00 | 0.00 | 0.00 | 72 | 1005.4 |
| 20260902155937 | 17 | 163 | 0.0 | 0.0 | 0.00 | 0.00 | 0.00 | 74 | 1005.6 |
| 20260902154936 | 17 | 163 | 0.0 | 0.0 | 0.00 | 0.00 | 0.00 | 74 | 1005.6 |
| 20260902153935 | 17 | 163 | 0.0 | 0.0 | 0.00 | 0.00 | 0.00 | 74 | 1005.7 |
| 20260902152934 | 17 | 161 | 0.0 | 0.0 | 0.00 | 0.00 | 0.00 | 73 | 1005.8 |
| 20260902145931 | 16 | 158 | 0.0 | 0.0 | 0.00 | 0.00 | 0.00 | 74 | 1006.1 |
| 20260902143929 | 16 | 167 | 0.0 | 0.0 | 0.00 | 0.00 | 0.00 | 74 | 1006.3 |
| 20260902142928 | 16 | 167 | 0.0 | 0.0 | 0.00 | 0.00 | 0.00 | 75 | 1006.4 |
| 20260902140926 | 16 | 201 | 0.0 | 0.0 | 0.00 | 0.00 | 0.00 | 74 | 1006.7 |
| 20260902134924 | 16 | 201 | 0.0 | 0.0 | 0.00 | 0.00 | 0.00 | 75 | 1006.9 |
| 20260902133923 | 16 | 201 | 0.0 | 0.0 | 0.00 | 0.00 | 0.00 | 75 | 1007.0 |
| 20260902132922 | 16 | 201 | 0.0 | 0.0 | 0.00 | 0.00 | 0.00 | 75 | 1007.1 |
| 20260902130920 | 16 | 201 | 0.0 | 0.0 | 0.00 | 0.00 | 0.00 | 76 | 1007.4 |
| 20260902124918 | 16 | 201 | 0.0 | 0.0 | 0.00 | 0.00 | 0.00 | 76 | 1007.7 |
| 20260902123917 | 16 | 201 | 0.0 | 0.0 | 0.00 | 0.00 | 0.00 | 76 | 1007.8 |
| 20260902122915 | 16 | 201 | 0.0 | 0.0 | 0.00 | 0.00 | 0.00 | 76 | 1007.9 |
| 20260902121915 | 16 | 201 | 0.0 | 0.0 | 0.00 | 0.00 | 0.00 | 76 | 1008.1 |
| 20260902120913 | 16 | 201 | 0.0 | 0.0 | 0.00 | 0.00 | 0.00 | 76 | 1008.2 |
| 20260902114912 | 16 | 201 | 0.0 | 0.0 | 0.00 | 0.00 | 0.00 | 77 | 1008.5 |
| 20260902111909 | 16 | 201 | 0.0 | 0.0 | 0.00 | 0.00 | 0.00 | 78 | 1008.8 |
| 20260902110907 | 16 | 201 | 0.0 | 0.0 | 0.00 | 0.00 | 0.00 | 77 | 1008.8 |
| 20260902105907 | 16 | 201 | 0.0 | 0.0 | 0.00 | 0.00 | 0.00 | 77 | 1008.8 |
| 20260902104905 | 16 | 201 | 0.0 | 0.0 | 0.00 | 0.00 | 0.00 | 77 | 1009.0 |
| 20260902103904 | 16 | 201 | 0.0 | 0.0 | 0.00 | 0.00 | 0.00 | 77 | 1009.0 |
| 20260902102903 | 16 | 201 | 0.0 | 0.0 | 0.00 | 0.00 | 0.00 | 77 | 1009.0 |
| 20260902101902 | 16 | 201 | 3.2 | 0.0 | 0.00 | 0.00 | 0.00 | 77 | 1009.1 |
| 20260902100901 | 16 | 201 | 0.0 | 0.0 | 0.00 | 0.00 | 0.00 | 77 | 1009.1 |
| 20260902095900 | 16 | 202 | 0.0 | 0.0 | 0.00 | 0.00 | 0.00 | 77 | 1009.2 |
| 20260902094859 | 16 | 189 | 0.0 | 0.0 | 0.00 | 0.00 | 0.00 | 77 | 1009.2 |
| 20260902092857 | 16 | 186 | 0.0 | 0.0 | 0.00 | 0.00 | 0.00 | 78 | 1009.5 |
| 20260902091856 | 16 | 194 | 3.2 | 0.0 | 0.00 | 0.00 | 0.00 | 79 | 1009.5 |
| 20260902090856 | 16 | 194 | 0.0 | 0.0 | 0.00 | 0.00 | 0.00 | 79 | 1009.7 |
| 20260902085855 | 16 | 225 | 0.0 | 0.0 | 0.00 | 0.00 | 0.00 | 79 | 1009.7 |
| 20260902084853 | 16 | 225 | 0.0 | 0.0 | 0.00 | 0.00 | 0.00 | 79 | 1009.8 |
| 20260902083852 | 16 | 225 | 0.0 | 0.0 | 0.00 | 0.00 | 0.00 | 79 | 1009.8 |
| 20260902082851 | 16 | 225 | 0.0 | 0.0 | 0.00 | 0.00 | 0.00 | 79 | 1009.8 |
| 20260902081850 | 16 | 227 | 0.0 | 0.0 | 0.00 | 0.00 | 0.00 | 79 | 1009.8 |
| 20260902080849 | 16 | 227 | 0.0 | 0.0 | 0.00 | 0.00 | 0.00 | 78 | 1009.7 |
| 20260902075848 | 16 | 215 | 0.0 | 0.0 | 0.00 | 0.00 | 0.00 | 78 | 1009.6 |
| 20260902073846 | 17 | 215 | 4.8 | 0.0 | 0.00 | 0.00 | 0.00 | 77 | 1009.9 |
| 20260902072845 | 17 | 219 | 0.0 | 0.0 | 0.00 | 0.00 | 0.00 | 76 | 1010.0 |
| 20260902071844 | 17 | 273 | 4.8 | 0.0 | 0.00 | 0.00 | 0.00 | 75 | 1010.0 |
| 20260902070844 | 17 | 214 | 0.0 | 0.0 | 0.00 | 0.00 | 0.00 | 75 | 1010.2 |
| 20260902065842 | 17 | 213 | 0.0 | 0.0 | 0.00 | 0.00 | 0.00 | 75 | 1010.2 |
| 20260902064841 | 17 | 213 | 0.0 | 0.0 | 0.00 | 0.00 | 0.00 | 75 | 1010.3 |
| 20260902063840 | 17 | 208 | 0.0 | 0.0 | 0.00 | 0.00 | 0.00 | 74 | 1010.3 |
| 20260902062839 | 17 | 194 | 0.0 | 0.0 | 0.00 | 0.00 | 0.00 | 73 | 1010.3 |
| 20260902061838 | 17 | 190 | 0.0 | 0.0 | 0.00 | 0.00 | 0.00 | 73 | 1010.1 |
| 20260902060837 | 17 | 209 | 0.0 | 0.0 | 0.00 | 0.00 | 0.00 | 73 | 1010.3 |
| 20260902054835 | 17 | 177 | 0.0 | 0.0 | 0.00 | 0.00 | 0.00 | 73 | 1010.5 |